Location: Miles
(41.4492°N, 81.6087°W)
Time: 14:42:12
(UTC+00:00)

A-11 Canister half - Pass Details

Date: 14 September 2024
Orbit: 1515 x 1684 km, 47.2° (Epoch: 11 October)

Event Time Altitude Azimuth Distance (km) Brightness Sun altitude
Rises 01:03:42 0° 245° (WSW) 4,723 12.3 -16.5°
Reaches altitude 10° 01:06:47 10° 246° (WSW) 3,722 11.7 -17.0°
Maximum altitude 01:16:11 85° 336° (NNW) 1,530 9.0 -18.6°
Enters shadow 01:25:17 11° 65° (ENE) 3,619 10.6 -20.2°
